Hourly Weather Muraveyka

Today, 26 September, Sunday

Time Temperature Precipitation Wind Pressure Humidity
00:00 +14°C° 0 mm 1 mps 742 mmHg 95%
01:00 +14°C° 0 mm 1 mps 742 mmHg 95%
02:00 +13°C° 0 mm 1 mps 742 mmHg 95%
03:00 +13°C° 0 mm 1 mps 742 mmHg 96%
04:00 +13°C° 0.3 mm 1 mps 742 mmHg 96%
05:00 +13°C° 0.3 mm 1 mps 742 mmHg 96%
06:00 +14°C° 0.3 mm 1 mps 742 mmHg 97%
07:00 +14°C° 0.1 mm 1 mps 741 mmHg 96%
08:00 +14°C° 0.1 mm 1 mps 741 mmHg 96%
09:00 +15°C° 0.1 mm 1 mps 741 mmHg 96%
10:00 +15°C° 0.1 mm 1 mps 741 mmHg 95%
11:00 +15°C° 0.1 mm 1 mps 741 mmHg 94%
12:00 +16°C° 0.1 mm 1 mps 741 mmHg 94%
13:00 +16°C° 0 mm 1 mps 740 mmHg 93%
14:00 +16°C° 0 mm 0 mps 740 mmHg 92%
15:00 +16°C° 0 mm 0 mps 740 mmHg 91%
16:00 +15°C° 0.1 mm 0 mps 740 mmHg 92%
17:00 +15°C° 0.1 mm 0 mps 740 mmHg 94%
18:00 +15°C° 0.1 mm 0 mps 740 mmHg 95%
19:00 +15°C° 0 mm 0 mps 740 mmHg 95%
20:00 +15°C° 0 mm 0 mps 740 mmHg 96%
21:00 +14°C° 0 mm 0 mps 740 mmHg 96%
22:00 +14°C° 0 mm 0 mps 739 mmHg 95%
23:00 +14°C° 0 mm 0 mps 739 mmHg 95%

Tomorrow, 27 September, Monday

Time Temperature Precipitation Wind Pressure Humidity
00:00 +15°C° 0 mm 1 mps 739 mmHg 95%
01:00 +15°C° 0 mm 1 mps 739 mmHg 95%
02:00 +15°C° 0 mm 1 mps 738 mmHg 95%
03:00 +14°C° 0 mm 0 mps 738 mmHg 94%
04:00 +15°C° 0 mm 1 mps 738 mmHg 94%
05:00 +15°C° 0 mm 1 mps 738 mmHg 94%
06:00 +15°C° 0 mm 1 mps 737 mmHg 94%
07:00 +16°C° 0 mm 1 mps 738 mmHg 90%
08:00 +18°C° 0 mm 1 mps 738 mmHg 86%
09:00 +19°C° 0 mm 1 mps 738 mmHg 82%
10:00 +20°C° 0 mm 1 mps 737 mmHg 75%
11:00 +20°C° 0 mm 2 mps 737 mmHg 68%
12:00 +21°C° 0 mm 2 mps 737 mmHg 62%
13:00 +21°C° 0 mm 2 mps 736 mmHg 62%
14:00 +21°C° 0 mm 2 mps 736 mmHg 63%
15:00 +21°C° 0 mm 2 mps 736 mmHg 64%
16:00 +20°C° 0 mm 2 mps 736 mmHg 72%
17:00 +18°C° 0 mm 2 mps 736 mmHg 81%
18:00 +16°C° 0 mm 2 mps 736 mmHg 89%
19:00 +16°C° 0 mm 2 mps 736 mmHg 91%
20:00 +15°C° 0 mm 2 mps 736 mmHg 94%
21:00 +15°C° 0 mm 1 mps 737 mmHg 96%
22:00 +15°C° 0 mm 1 mps 737 mmHg 96%
23:00 +15°C° 0 mm 1 mps 737 mmHg 95%

Day after tomorrow, 28 September, Tuesday

Time Temperature Precipitation Wind Pressure Humidity
00:00 +15°C° 0 mm 1 mps 737 mmHg 95%
01:00 +15°C° 0.1 mm 1 mps 736 mmHg 95%
02:00 +15°C° 0.1 mm 1 mps 736 mmHg 95%
03:00 +15°C° 0.1 mm 1 mps 736 mmHg 95%
04:00 +15°C° 0.1 mm 1 mps 736 mmHg 95%
05:00 +15°C° 0.1 mm 1 mps 737 mmHg 95%
06:00 +14°C° 0.1 mm 1 mps 737 mmHg 94%
07:00 +15°C° 0 mm 1 mps 737 mmHg 93%
08:00 +15°C° 0 mm 1 mps 737 mmHg 91%
09:00 +15°C° 0 mm 1 mps 737 mmHg 90%
10:00 +18°C° 0 mm 1 mps 737 mmHg 81%
11:00 +20°C° 0 mm 1 mps 737 mmHg 72%
12:00 +22°C° 0 mm 1 mps 736 mmHg 64%
13:00 +22°C° 0 mm 1 mps 736 mmHg 63%
14:00 +22°C° 0 mm 1 mps 736 mmHg 62%
15:00 +23°C° 0 mm 1 mps 735 mmHg 60%
16:00 +21°C° 0 mm 1 mps 735 mmHg 68%
17:00 +20°C° 0 mm 1 mps 735 mmHg 75%
18:00 +18°C° 0 mm 1 mps 735 mmHg 83%
19:00 +16°C° 0 mm 1 mps 735 mmHg 86%
20:00 +15°C° 0 mm 1 mps 735 mmHg 89%
21:00 +15°C° 0 mm 2 mps 735 mmHg 92%
22:00 +14°C° 0 mm 2 mps 735 mmHg 93%
23:00 +14°C° 0 mm 2 mps 735 mmHg 93%

29 September, Wednesday

Time Temperature Precipitation Wind Pressure Humidity
00:00 +14°C° 0 mm 2 mps 734 mmHg 94%
01:00 +14°C° 0 mm 2 mps 734 mmHg 94%
02:00 +14°C° 0 mm 2 mps 734 mmHg 94%
03:00 +13°C° 0 mm 2 mps 734 mmHg 94%
04:00 +13°C° 0 mm 2 mps 734 mmHg 95%
05:00 +13°C° 0 mm 2 mps 734 mmHg 95%
06:00 +13°C° 0 mm 1 mps 734 mmHg 96%
07:00 +15°C° 0 mm 2 mps 733 mmHg 90%
08:00 +16°C° 0 mm 2 mps 733 mmHg 84%
09:00 +18°C° 0 mm 2 mps 733 mmHg 78%
10:00 +19°C° 0 mm 2 mps 733 mmHg 72%
11:00 +20°C° 0 mm 2 mps 733 mmHg 65%
12:00 +23°C° 0 mm 2 mps 732 mmHg 58%
13:00 +20°C° 0.3 mm 2 mps 732 mmHg 69%
14:00 +19°C° 0.3 mm 2 mps 731 mmHg 79%
15:00 +18°C° 0.3 mm 1 mps 731 mmHg 89%
16:00 +18°C° 1.2 mm 1 mps 731 mmHg 91%
17:00 +16°C° 1.2 mm 1 mps 731 mmHg 94%
18:00 +15°C° 1.2 mm 1 mps 731 mmHg 97%
19:00 +15°C° 0.2 mm 1 mps 731 mmHg 97%
20:00 +15°C° 0.2 mm 1 mps 731 mmHg 97%
21:00 +15°C° 0.2 mm 1 mps 731 mmHg 96%
22:00 +15°C° 0 mm 1 mps 731 mmHg 96%
23:00 +15°C° 0 mm 1 mps 731 mmHg 96%

30 September, Thursday

Time Temperature Precipitation Wind Pressure Humidity
00:00 +15°C° 0 mm 1 mps 731 mmHg 96%
01:00 +14°C° 0 mm 1 mps 730 mmHg 96%
02:00 +14°C° 0 mm 1 mps 730 mmHg 96%
03:00 +12°C° 0 mm 0 mps 730 mmHg 96%
04:00 +13°C° 0 mm 1 mps 730 mmHg 97%
05:00 +12°C° 0 mm 1 mps 731 mmHg 97%
06:00 +12°C° 0 mm 1 mps 731 mmHg 98%
07:00 +12°C° 0 mm 1 mps 731 mmHg 97%
08:00 +13°C° 0 mm 1 mps 731 mmHg 96%
09:00 +13°C° 0 mm 1 mps 732 mmHg 95%
10:00 +13°C° 0 mm 1 mps 732 mmHg 93%
11:00 +13°C° 0 mm 1 mps 732 mmHg 92%
12:00 +14°C° 0 mm 1 mps 732 mmHg 90%
13:00 +14°C° 0 mm 2 mps 731 mmHg 83%
14:00 +15°C° 0 mm 2 mps 731 mmHg 77%
15:00 +16°C° 0 mm 2 mps 731 mmHg 70%
16:00 +15°C° 0 mm 1 mps 731 mmHg 75%
17:00 +13°C° 0 mm 1 mps 731 mmHg 79%
18:00 +12°C° 0 mm 1 mps 731 mmHg 84%
19:00 +11°C° 0 mm 1 mps 731 mmHg 84%
20:00 +10°C° 0 mm 1 mps 731 mmHg 84%
21:00 +10°C° 0 mm 1 mps 731 mmHg 84%
22:00 +9°C° 0 mm 1 mps 731 mmHg 82%
23:00 +9°C° 0 mm 1 mps 731 mmHg 81%

1 October, Friday

Time Temperature Precipitation Wind Pressure Humidity
00:00 +9°C° 0 mm 1 mps 730 mmHg 79%
01:00 +9°C° 0 mm 1 mps 730 mmHg 74%
02:00 +9°C° 0 mm 1 mps 729 mmHg 69%
03:00 +9°C° 0 mm 2 mps 729 mmHg 63%
04:00 +9°C° 0 mm 2 mps 729 mmHg 60%
05:00 +9°C° 0 mm 2 mps 729 mmHg 57%
06:00 +9°C° 0 mm 2 mps 729 mmHg 54%
07:00 +12°C° 0 mm 2 mps 729 mmHg 51%
08:00 +15°C° 0 mm 1 mps 730 mmHg 48%
09:00 +19°C° 0 mm 1 mps 730 mmHg 45%
10:00 +20°C° 0 mm 1 mps 730 mmHg 47%
11:00 +20°C° 0 mm 2 mps 729 mmHg 49%
12:00 +21°C° 0 mm 2 mps 729 mmHg 51%
13:00 +21°C° 0 mm 2 mps 729 mmHg 52%
14:00 +21°C° 0 mm 3 mps 729 mmHg 54%
15:00 +21°C° 0 mm 3 mps 729 mmHg 55%
16:00 +19°C° 0 mm 2 mps 729 mmHg 66%
17:00 +18°C° 0 mm 1 mps 730 mmHg 76%
18:00 +13°C° 0 mm 0 mps 730 mmHg 86%
19:00 +13°C° 0 mm 0 mps 730 mmHg 86%
20:00 +14°C° 0 mm 1 mps 730 mmHg 86%
21:00 +14°C° 0 mm 1 mps 731 mmHg 86%
22:00 +13°C° 0 mm 1 mps 731 mmHg 89%
23:00 +12°C° 0 mm 0 mps 731 mmHg 91%
Show more

We Need Your Consent

Meteoprog and our Service Providers may store and access personal data such as cookies, device identifiers or other similar technologies on your device and process such data to personalise content and ads, as well as provide social media features and to analyse the traffic.

  • Store and/or access information on your device

    Cookies, device identifiers or other information can be stored or accessed on your device for the purposes indicated above.

  • Personalised ads and content, ad and content measurement, audience insights, and products development

    Ads and content can be personalised based on a profile. More data can be added to better personalise ads and content. Ad and content performance can be measured. Insights about the audience who saw the ads and content can be derived. Such data can be used to develop or improve user’s experience, systems and software.

By clicking ‘I Agree’ you will allow the use of indicated cookies, device identifiers, web beacons or other similar technologies. Your settings can be changed in the browser on your device.

For certain purposes, legitimate interests may be relied on, rather than consent. You can read more about this in our Privacy and Cookie Policy.